カタログに戻る

FENGYUN 1C DEB

LostSSO
NORAD 38490·DEBRIS·🇨🇳 China

打ち上げ May 10, 1999 から Taiyuan Satellite Launch Center

Loading…

次のパス (今後24時間)

TLE

古いSource: Space-Track

元期: Jan 2, 2015, 10:42 UTC

1 38490U 99025ERZ 15002.44632846  .00001048  00000-0  67131-3 0  9998
2 38490  99.1386  78.7395 0050824  70.6028 290.0622 14.04970804222254

AllMySatでFENGYUN 1C DEBをリアルタイム追跡

Download on the App Store